Flag for U.S.A. Weather past 2 weeks in Chattanooga, Tennessee, U.S.A.

Now
77 °F

Partly cloudy.


Feels Like: 79 °F
Forecast: 67 / 80 °F
Wind: 5 mph from South

Location: Lovell Field

Current Time: May 27, 2015 at 10:37:33 PM

Latest Report: May 27, 2015 at 9:53 PM


Visibility: 10 mi

Pressure: 30.17 "Hg

Humidity: 66%

Dew point: 65 °F

Location of ChattanoogaLocation

Historic Weather in Chattanooga — Graph

°F

Chattanooga temperature yesterday

Maximum temperature yesterday: 80 °F (at 12:53 PM)
Minimum temperature yesterday: 67 °F (at 12:53 AM)
Average temperature yesterday: 72 °F

Past Weeks' High & Low Weather Summary

 TemperatureHumidityPressure
High87 °F (May 20, 3:53 PM)97% (May 17, 4:53 AM)30.38 "Hg (May 17, 4:53 AM)
Low50 °F (May 23, 5:53 AM)24% (May 13, 5:53 PM)29.86 "Hg (May 20, 10:53 PM)
Average71 °F69%30.16 "Hg
* Reported May 12 8:53 PM — May 27 8:53 PM, Chattanooga, Weather by CustomWeather, © 2015

Note: Actual official high and low records may vary slightly from our data, if they occured in-between our weather recording intervals... More about our weather records

Advertising

Chattanooga weather history for previous 24 hours

 ConditionsComfort  
Time TempWeatherWind HumidityBarometerVisibility
8:53 PM
Wed, May 27
78 °FBroken clouds.5 mph64%30.15 "Hg10 mi
7:53 PM79 °FBroken clouds.6 mph65%30.13 "Hg10 mi
6:53 PM82 °FBroken clouds.9 mph56%30.12 "Hg10 mi
5:53 PM83 °FBroken clouds.7 mph55%30.12 "Hg10 mi
4:53 PM83 °FBroken clouds.8 mph53%30.14 "Hg10 mi
3:53 PM84 °FScattered clouds.3 mph51%30.16 "Hg10 mi
2:53 PM81 °FScattered clouds.6 mph56%30.17 "Hg10 mi
1:53 PM79 °FScattered clouds.7 mph62%30.20 "Hg10 mi
12:53 PM77 °FPartly sunny.6 mph66%30.22 "Hg10 mi
11:53 AM76 °FPartly sunny.6 mph72%30.24 "Hg10 mi
10:53 AM72 °FBroken clouds.6 mph81%30.22 "Hg10 mi
9:53 AM70 °FMostly cloudy.6 mph84%30.21 "Hg8 mi
8:53 AM69 °FCloudy.3 mph87%30.21 "Hg7 mi
7:53 AM68 °FBroken clouds.5 mph90%30.20 "Hg7 mi
6:53 AM67 °FFog.5 mph90%30.20 "Hg6 mi
5:53 AM67 °FMostly cloudy.No wind93%30.19 "Hg10 mi
4:53 AM67 °FLow clouds.3 mph90%30.16 "Hg10 mi
3:53 AM67 °FOvercast.7 mph90%30.15 "Hg10 mi
2:53 AM67 °FOvercast.3 mph93%30.17 "Hg10 mi
1:53 AM67 °FOvercast.6 mph90%30.18 "Hg10 mi
12:53 AM67 °FClear.No wind93%30.17 "Hg10 mi
11:53 PM
Tue, May 26
68 °FPartly cloudy.No wind90%30.18 "Hg8 mi
10:53 PM68 °FPassing clouds.6 mph93%30.17 "Hg9 mi
Weather by CustomWeather, © 2015

See weather overviewHow to use our weather pages